• In Romania
  • List of Countries
  • For 7 days
  • Water Temperature
  • Satellite Maps
  • Weather Map
  • Weather Widgets
  • user-avatar
    Login

    Hourly Weather Makarska

    Today, 17 October, Tuesday

    Time Temperature Precipitation Wind Pressure Humidity
    00:00 +20°C° 0 mm 1 mps 768 mmHg 62%
    01:00 +20°C° 0 mm 1 mps 768 mmHg 60%
    02:00 +20°C° 0 mm 1 mps 768 mmHg 59%
    03:00 +20°C° 0 mm 1 mps 768 mmHg 57%
    04:00 +20°C° 0 mm 1 mps 767 mmHg 56%
    05:00 +20°C° 0 mm 1 mps 767 mmHg 55%
    06:00 +20°C° 0 mm 1 mps 767 mmHg 53%
    07:00 +20°C° 0 mm 1 mps 768 mmHg 53%
    08:00 +22°C° 0 mm 1 mps 767 mmHg 49%
    09:00 +24°C° 0 mm 1 mps 767 mmHg 45%
    10:00 +26°C° 0 mm 1 mps 767 mmHg 40%
    11:00 +26°C° 0 mm 1 mps 767 mmHg 41%
    12:00 +27°C° 0 mm 1 mps 767 mmHg 42%
    13:00 +27°C° 0 mm 1 mps 767 mmHg 42%
    14:00 +26°C° 0 mm 1 mps 766 mmHg 46%
    15:00 +26°C° 0 mm 1 mps 766 mmHg 51%
    16:00 +25°C° 0 mm 1 mps 766 mmHg 55%
    17:00 +24°C° 0 mm 1 mps 766 mmHg 57%
    18:00 +22°C° 0 mm 1 mps 766 mmHg 59%
    19:00 +21°C° 0 mm 1 mps 766 mmHg 61%
    20:00 +21°C° 0 mm 1 mps 765 mmHg 60%
    21:00 +21°C° 0 mm 1 mps 765 mmHg 58%
    22:00 +20°C° 0 mm 1 mps 765 mmHg 57%
    23:00 +20°C° 0 mm 1 mps 765 mmHg 55%

    Tomorrow, 18 October, Wednesday

    Time Temperature Precipitation Wind Pressure Humidity
    00:00 +20°C° 0 mm 1 mps 765 mmHg 53%
    01:00 +20°C° 0 mm 1 mps 765 mmHg 51%
    02:00 +20°C° 0 mm 1 mps 764 mmHg 50%
    03:00 +19°C° 0 mm 1 mps 764 mmHg 50%
    04:00 +19°C° 0 mm 1 mps 764 mmHg 49%
    05:00 +19°C° 0 mm 1 mps 764 mmHg 49%
    06:00 +19°C° 0 mm 1 mps 764 mmHg 49%
    07:00 +19°C° 0 mm 1 mps 764 mmHg 50%
    08:00 +21°C° 0 mm 1 mps 763 mmHg 46%
    09:00 +23°C° 0 mm 1 mps 763 mmHg 43%
    10:00 +25°C° 0 mm 1 mps 763 mmHg 39%
    11:00 +25°C° 0 mm 1 mps 763 mmHg 40%
    12:00 +26°C° 0 mm 1 mps 763 mmHg 40%
    13:00 +26°C° 0 mm 1 mps 762 mmHg 40%
    14:00 +25°C° 0 mm 1 mps 762 mmHg 44%
    15:00 +25°C° 0 mm 1 mps 762 mmHg 48%
    16:00 +24°C° 0 mm 1 mps 762 mmHg 52%
    17:00 +23°C° 0 mm 1 mps 762 mmHg 54%
    18:00 +22°C° 0 mm 1 mps 762 mmHg 57%
    19:00 +20°C° 0 mm 1 mps 762 mmHg 60%
    20:00 +20°C° 0 mm 1 mps 762 mmHg 60%
    21:00 +20°C° 0 mm 1 mps 762 mmHg 60%
    22:00 +19°C° 0 mm 1 mps 762 mmHg 60%
    23:00 +19°C° 0 mm 1 mps 762 mmHg 59%

    Day after tomorrow, 19 October, Thursday

    Time Temperature Precipitation Wind Pressure Humidity
    00:00 +19°C° 0 mm 1 mps 762 mmHg 59%
    01:00 +19°C° 0 mm 1 mps 762 mmHg 58%
    02:00 +18°C° 0 mm 1 mps 762 mmHg 58%
    03:00 +18°C° 0 mm 1 mps 762 mmHg 58%
    04:00 +18°C° 0 mm 1 mps 762 mmHg 58%
    05:00 +18°C° 0 mm 1 mps 762 mmHg 58%
    06:00 +17°C° 0 mm 2 mps 762 mmHg 58%
    07:00 +17°C° 0 mm 2 mps 762 mmHg 58%
    08:00 +19°C° 0 mm 2 mps 762 mmHg 53%
    09:00 +21°C° 0 mm 2 mps 762 mmHg 49%
    10:00 +24°C° 0 mm 2 mps 762 mmHg 45%
    11:00 +24°C° 0 mm 2 mps 762 mmHg 45%
    12:00 +25°C° 0 mm 2 mps 762 mmHg 45%
    13:00 +25°C° 0 mm 2 mps 761 mmHg 45%
    14:00 +25°C° 0 mm 2 mps 761 mmHg 48%
    15:00 +24°C° 0 mm 1 mps 761 mmHg 52%
    16:00 +24°C° 0 mm 1 mps 761 mmHg 56%
    17:00 +22°C° 0 mm 1 mps 761 mmHg 61%
    18:00 +21°C° 0 mm 1 mps 761 mmHg 65%
    19:00 +19°C° 0 mm 1 mps 762 mmHg 70%
    20:00 +19°C° 0 mm 1 mps 762 mmHg 71%
    21:00 +19°C° 0 mm 1 mps 762 mmHg 72%
    22:00 +19°C° 0 mm 1 mps 762 mmHg 73%
    23:00 +18°C° 0 mm 1 mps 762 mmHg 72%

    20 October, Friday

    Time Temperature Precipitation Wind Pressure Humidity
    00:00 +17°C° 0 mm 2 mps 762 mmHg 72%
    01:00 +17°C° 0 mm 2 mps 762 mmHg 72%
    02:00 +17°C° 0 mm 2 mps 762 mmHg 71%
    03:00 +17°C° 0 mm 2 mps 762 mmHg 70%
    04:00 +16°C° 0 mm 2 mps 762 mmHg 69%
    05:00 +16°C° 0 mm 2 mps 762 mmHg 68%
    06:00 +16°C° 0 mm 2 mps 763 mmHg 66%
    07:00 +17°C° 0 mm 2 mps 763 mmHg 65%
    08:00 +18°C° 0 mm 2 mps 763 mmHg 59%
    09:00 +20°C° 0 mm 2 mps 763 mmHg 53%
    10:00 +23°C° 0 mm 1 mps 763 mmHg 48%
    11:00 +23°C° 0 mm 2 mps 763 mmHg 47%
    12:00 +24°C° 0 mm 2 mps 763 mmHg 47%
    13:00 +24°C° 0 mm 2 mps 763 mmHg 46%
    14:00 +24°C° 0 mm 2 mps 763 mmHg 50%
    15:00 +23°C° 0 mm 1 mps 763 mmHg 54%
    16:00 +23°C° 0 mm 1 mps 763 mmHg 58%
    17:00 +22°C° 0 mm 1 mps 763 mmHg 64%
    18:00 +20°C° 0 mm 1 mps 763 mmHg 70%
    19:00 +19°C° 0 mm 1 mps 764 mmHg 76%
    20:00 +19°C° 0 mm 1 mps 764 mmHg 76%
    21:00 +18°C° 0 mm 1 mps 764 mmHg 75%
    22:00 +18°C° 0 mm 1 mps 764 mmHg 75%
    23:00 +18°C° 0 mm 1 mps 764 mmHg 74%

    21 October, Saturday

    Time Temperature Precipitation Wind Pressure Humidity
    00:00 +18°C° 0 mm 1 mps 764 mmHg 73%
    01:00 +16°C° 0 mm 1 mps 764 mmHg 72%
    02:00 +16°C° 0 mm 1 mps 764 mmHg 71%
    03:00 +16°C° 0 mm 1 mps 764 mmHg 69%
    04:00 +16°C° 0 mm 1 mps 764 mmHg 68%
    05:00 +16°C° 0 mm 1 mps 764 mmHg 66%
    06:00 +16°C° 0 mm 1 mps 764 mmHg 63%
    07:00 +16°C° 0 mm 1 mps 764 mmHg 61%
    08:00 +19°C° 0 mm 1 mps 764 mmHg 55%
    09:00 +21°C° 0 mm 1 mps 764 mmHg 49%
    10:00 +23°C° 0 mm 1 mps 764 mmHg 42%
    11:00 +23°C° 0 mm 1 mps 764 mmHg 42%
    12:00 +24°C° 0 mm 2 mps 763 mmHg 42%
    13:00 +24°C° 0 mm 2 mps 763 mmHg 42%
    14:00 +24°C° 0 mm 2 mps 763 mmHg 46%
    15:00 +23°C° 0 mm 2 mps 763 mmHg 50%
    16:00 +23°C° 0 mm 2 mps 762 mmHg 54%
    17:00 +20°C° 0 mm 2 mps 763 mmHg 59%
    18:00 +19°C° 0 mm 2 mps 763 mmHg 64%
    19:00 +17°C° 0 mm 2 mps 763 mmHg 69%
    20:00 +17°C° 0 mm 2 mps 763 mmHg 69%
    21:00 +17°C° 0 mm 2 mps 763 mmHg 68%
    22:00 +18°C° 0 mm 1 mps 763 mmHg 67%
    23:00 +16°C° 0 mm 1 mps 763 mmHg 65%

    22 October, Sunday

    Time Temperature Precipitation Wind Pressure Humidity
    00:00 +16°C° 0 mm 1 mps 763 mmHg 63%
    01:00 +16°C° 0 mm 1 mps 763 mmHg 61%
    02:00 +16°C° 0 mm 1 mps 762 mmHg 59%
    03:00 +16°C° 0 mm 1 mps 762 mmHg 57%
    04:00 +16°C° 0 mm 1 mps 762 mmHg 55%
    05:00 +16°C° 0 mm 1 mps 762 mmHg 55%
    06:00 +16°C° 0 mm 1 mps 762 mmHg 55%
    07:00 +16°C° 0 mm 1 mps 762 mmHg 54%
    08:00 +19°C° 0 mm 1 mps 762 mmHg 52%
    09:00 +21°C° 0 mm 1 mps 761 mmHg 50%
    10:00 +22°C° 0 mm 1 mps 761 mmHg 47%
    11:00 +23°C° 0 mm 1 mps 761 mmHg 48%
    12:00 +23°C° 0 mm 2 mps 760 mmHg 49%
    13:00 +24°C° 0 mm 2 mps 760 mmHg 49%
    14:00 +23°C° 0 mm 2 mps 760 mmHg 53%
    15:00 +23°C° 0 mm 2 mps 759 mmHg 58%
    16:00 +21°C° 0 mm 2 mps 759 mmHg 62%
    17:00 +20°C° 0 mm 2 mps 759 mmHg 66%
    18:00 +19°C° 0 mm 3 mps 759 mmHg 71%
    19:00 +18°C° 0 mm 3 mps 759 mmHg 76%
    20:00 +18°C° 0.1 mm 3 mps 759 mmHg 76%
    21:00 +18°C° 0.1 mm 3 mps 759 mmHg 76%
    22:00 +18°C° 0.1 mm 3 mps 759 mmHg 76%
    23:00 +18°C° 0.2 mm 4 mps 759 mmHg 77%
    Show more